EW2725 Wareham MA US current weather conditions

sailwx.info

Wind from 182

Air temperature 10.0° C
Dewpoint 5.4° C

Last reported at 2020-Oct-25 20:05 UTC.
Time now 2020-Oct-26 03:52 UTC

Location: N 41°48' W 070°38'.
View on Google Maps.

See reports from other nearby stations

  
Tides and Currents Weather Stations Pressure Air Temp Water Temp Dewpoint Dewpoint Depression Visibility Wind Speed Wind Dir Waves Ship Positions
date/time (UTC)wind fromknots sea level pressurealtimeterstation pressurevisibilityair tempwater tempwave heightnotes
2020-Oct-25 20:05 182 10.0
2020-Oct-25 18:05
2020-Oct-25 17:05 176 11.1
2020-Oct-25 15:05 263 0 11.7
2020-Oct-25 14:05
2020-Oct-25 13:05
2020-Oct-25 12:00
2020-Oct-25 11:05 333 6.1
2020-Oct-25 10:10
2020-Oct-25 10:05
2020-Oct-25 09:05 355 7.2
2020-Oct-25 08:05 355 7.2
2020-Oct-25 07:55 355 7.2
2020-Oct-25 07:45 355 7.2
2020-Oct-25 07:40 355 7.2
2020-Oct-25 07:35 355 7.2
2020-Oct-25 07:30 355 7.2
2020-Oct-25 07:25 355 7.2
2020-Oct-25 07:20 355 7.2
2020-Oct-25 07:05 355 7.2
2020-Oct-25 07:00 355 7.8
2020-Oct-25 06:50 355 7.8
2020-Oct-25 06:45 355 7.8
2020-Oct-25 06:35 355 7.8
2020-Oct-25 06:25 355 7.8
2020-Oct-25 06:20 355 8.3
2020-Oct-25 06:15 355 8.3
2020-Oct-25 06:10 355 8.3
2020-Oct-25 06:00 355 8.3
2020-Oct-25 05:55 355 8.3
2020-Oct-25 05:50 355 8.3
2020-Oct-25 05:40 346 8.3
2020-Oct-25 05:35 351 8.9
2020-Oct-25 05:20 355 8.9
2020-Oct-25 05:10 355 0 gusting 2 8.9
2020-Oct-25 05:00 355 9.4
2020-Oct-25 04:55 355 0 gusting 2 9.4
2020-Oct-25 04:45 345 0 gusting 5 9.4
2020-Oct-25 04:40 328 0 gusting 2 9.4
2020-Oct-25 04:35 312 0 gusting 7 10.0
2020-Oct-25 04:25 328 1 gusting 4 10.0
2020-Oct-25 04:20 351 0 gusting 2 10.6
2020-Oct-25 04:10 327 10.6
2020-Oct-25 04:05 287 0 gusting 4 11.1
2020-Oct-25 03:40 355 0 gusting 1 11.7
2020-Oct-25 03:35 355 12.2
2020-Oct-25 03:20 347 1 gusting 4 12.2
2020-Oct-25 03:05 340 12.8
2020-Oct-25 02:55 334 0 gusting 2 12.8
2020-Oct-25 02:50 004 12.8
2020-Oct-25 02:40 314 0 gusting 2 13.3
2020-Oct-25 02:35 335 1 gusting 4 13.3
2020-Oct-25 02:25 349 2 gusting 6 13.9
2020-Oct-25 02:15 001 0 gusting 2 13.9
2020-Oct-25 02:10 338 1 gusting 5 13.9
2020-Oct-25 02:05 339 0 gusting 4 13.9
2020-Oct-25 01:40 316 0 gusting 6 14.4
2020-Oct-25 01:35 318 0 gusting 6 15.0
2020-Oct-25 01:20 323 0 gusting 2 15.0
2020-Oct-25 01:15 323 0 gusting 4 15.0
2020-Oct-25 01:10 337 1 gusting 4 15.6
2020-Oct-25 01:05 304 0 gusting 2 15.6
2020-Oct-25 00:55 355 15.6
2020-Oct-25 00:45 355 16.1
2020-Oct-25 00:35 309 16.1
2020-Oct-25 00:25 292 16.1
2020-Oct-25 00:15 292 16.7
2020-Oct-25 00:10 292 16.7
2020-Oct-25 00:00 292 16.7
2020-Oct-24 23:50 292 16.7
2020-Oct-24 23:45 292 16.7
2020-Oct-24 23:40 292 17.2
2020-Oct-24 23:35 292 17.2
2020-Oct-24 23:25 292 17.2
2020-Oct-24 23:15 292 17.2
2020-Oct-24 23:05 292 0 gusting 5 17.2
2020-Oct-24 23:00 300 17.2
2020-Oct-24 22:55 300 17.2
2020-Oct-24 22:45 275 17.2
2020-Oct-24 22:30 275 17.2
2020-Oct-24 22:25 276 17.2
2020-Oct-24 22:20 275 17.2
2020-Oct-24 22:10 275 17.2
2020-Oct-24 22:05 275 17.2
2020-Oct-24 21:45 275 17.2
2020-Oct-24 21:40 275 17.2
2020-Oct-24 21:35 275 17.2
2020-Oct-24 21:25 275 17.8
2020-Oct-24 21:15 275 17.8
2020-Oct-24 21:10 275 17.8
2020-Oct-24 21:05 275 17.8
2020-Oct-24 20:55 275 17.8
2020-Oct-24 20:50 275 17.8
2020-Oct-24 20:40 275 17.8
2020-Oct-24 20:35 275 17.8
2020-Oct-24 20:30 275 17.8
2020-Oct-24 20:15 275 17.8
2020-Oct-24 20:10 275 18.3
2020-Oct-24 20:05 275 0 gusting 2 18.3
2020-Oct-24 19:55 284 18.9
2020-Oct-24 19:45 284 18.9
2020-Oct-24 19:35 241 18.9
2020-Oct-24 19:25 241 18.3
2020-Oct-24 19:20 242 18.3
2020-Oct-24 19:10 241 18.3
2020-Oct-24 19:05 255 18.3
2020-Oct-24 19:00 284 17.8
2020-Oct-24 18:55 209 0 gusting 2 18.3
2020-Oct-24 18:50 210 17.8
2020-Oct-24 18:40 199 0 gusting 2 17.8
2020-Oct-24 18:35 199 0 gusting 2 17.8
2020-Oct-24 18:15 208 17.2
2020-Oct-24 18:05 209 1 gusting 2 17.2
2020-Oct-24 17:55 196 17.2
2020-Oct-24 17:40 196 17.8
2020-Oct-24 17:35 194 17.8
2020-Oct-24 17:25 196 17.2
2020-Oct-24 17:20 195 0 gusting 2 17.2
2020-Oct-24 17:10 199 17.2
2020-Oct-24 16:50 215 0 gusting 2 17.2
2020-Oct-24 16:25 211 17.8
2020-Oct-24 16:15 203 1 gusting 2 17.8
2020-Oct-24 16:05 213 2 gusting 6 17.8
2020-Oct-24 15:55 246 0 gusting 2 17.8
2020-Oct-24 15:45 211 1 gusting 4 17.2
2020-Oct-24 15:35 218 0 gusting 5 17.8
2020-Oct-24 15:25 211 0 gusting 5 17.2
2020-Oct-24 15:20 215 0 gusting 4 17.2
2020-Oct-24 15:10 197 1 gusting 4 17.2
2020-Oct-24 14:40 188 0 gusting 2 17.2
2020-Oct-24 14:35 213 1 gusting 2 17.2
2020-Oct-24 14:25 203 16.7
2020-Oct-24 14:20 204 16.7
2020-Oct-24 14:10 241 16.7
2020-Oct-24 14:05 259 16.1
2020-Oct-24 13:55 209 0 gusting 2 16.1
2020-Oct-24 13:50 192 16.1
2020-Oct-24 13:30 246 0 gusting 2 15.6
2020-Oct-24 13:25 246 15.0
2020-Oct-24 13:20 248 15.0
2020-Oct-24 13:10 292 15.0
2020-Oct-24 13:05 293 14.4
2020-Oct-24 12:45 293 13.3
2020-Oct-24 12:25 294 12.8
2020-Oct-24 12:20 294 12.2
2020-Oct-24 12:15 294 12.2
2020-Oct-24 12:10 294 12.2
2020-Oct-24 12:05 294 12.2
2020-Oct-24 11:55 294 12.8
2020-Oct-24 11:45 294 12.8
2020-Oct-24 11:40 294 12.2
2020-Oct-24 11:25 294 12.8
2020-Oct-24 11:05 294 12.2
2020-Oct-24 10:50 294 12.8
2020-Oct-24 10:35 294 12.8
2020-Oct-24 10:30 294 12.8
2020-Oct-24 10:20 294 12.8
2020-Oct-24 10:15 294 12.8
2020-Oct-24 10:10 294 12.8
2020-Oct-24 10:05 294 12.8
2020-Oct-24 09:55 294 12.8
2020-Oct-24 09:50 294 12.8
2020-Oct-24 09:40 294 12.8
2020-Oct-24 09:35 294 12.8
2020-Oct-24 09:15 294 12.8
2020-Oct-24 09:10 294 12.8
2020-Oct-24 09:00 152 12.8
2020-Oct-24 08:50 153 12.8
2020-Oct-24 08:45 153 12.8
2020-Oct-24 08:40 152 12.8
2020-Oct-24 08:35 152 12.8
2020-Oct-24 08:25 152 12.8
2020-Oct-24 08:15 152 13.3
2020-Oct-24 08:06 153 13.3
2020-Oct-24 08:00 153 13.3
2020-Oct-24 07:55 153 13.3
2020-Oct-24 07:50 152 13.3
2020-Oct-24 07:45 153 13.3
2020-Oct-24 07:40 152 13.3
2020-Oct-24 07:35 153 13.3
2020-Oct-24 07:20 153 13.3
2020-Oct-24 07:10 153 13.3
2020-Oct-24 07:05 153 13.3
2020-Oct-24 06:55 153 12.8
2020-Oct-24 06:50 152 12.8
2020-Oct-24 06:40 153 12.8
2020-Oct-24 06:35 153 12.8
2020-Oct-24 06:25 153 12.8
2020-Oct-24 06:20 152 12.8
2020-Oct-24 06:05 152 12.8
2020-Oct-24 05:50 153 12.8
2020-Oct-24 05:40 152 12.8
2020-Oct-24 05:35 153 12.8
2020-Oct-24 05:25 153 12.8
2020-Oct-24 05:15 153 12.8
2020-Oct-24 05:10 152 12.8
2020-Oct-24 05:05 152 12.8
2020-Oct-24 04:55 153 12.8
2020-Oct-24 04:50 153 12.8
2020-Oct-24 04:45 152 12.8
2020-Oct-24 04:35 152 12.8
2020-Oct-24 04:25 152 12.8
2020-Oct-24 04:20 152 12.8
2020-Oct-24 04:05 152 12.8
2020-Oct-24 03:55 152 12.8
2020-Oct-24 03:50 152 12.8
2020-Oct-24 03:40 153 12.2
2020-Oct-24 03:35 152 12.2
2020-Oct-24 03:20 152 12.2
2020-Oct-24 03:15 153 12.2
2020-Oct-24 03:05 152 12.2